Location: Franzen
(48.6167°N, 15.3833°E)
Time: 13:01:23
(UTC+00:00)

ARIANE 5 R/B - Pass Details

Date: 01 August 2021
Orbit: 622 x 654 km, 98.1° (Epoch: 23 September)

Event Time Altitude Azimuth Distance (km) Brightness Sun altitude
Exits shadow 19:58:59 17° 145° (SE) 1,646 4.1 -11.8°
Maximum altitude 20:02:19 56° 71° (ENE) 766 2.9 -12.2°
Drops below altitude 10° 20:06:40 10° 354° (N) 2,036 6.0 -12.7°
Sets 20:08:53 0° 350° (N) 2,944 7.1 -12.9°
